1504281600.42,49495,25.88,74086.0,11.57,7.73,7.73,0,*4A
1504281601.65,49496,25.88,74088.3,11.59,7.83,7.77,0,*4C
1504281602.88,49497,25.88,74086.8,11.59,7.77,7.65,0,*45
1504281604.11,49498,25.88,74088.3,11.59,7.73,7.65,0,*4E
1504281605.33,49499,25.88,74090.8,11.61,7.45,7.29,0,*49
1504281606.53,49500,25.88,74090.3,11.61,7.05,6.83,0,*4D
1504281607.74,49501,25.88,74086.5,11.63,7.09,6.69,0,*46
1504281608.97,49502,25.88,74086.0,11.63,6.87,6.39,0,*47
1504281610.16,49503,25.88,74088.8,11.63,6.75,6.25,0,*46
1504281611.34,49504,25.88,74090.3,11.63,6.79,6.11,0,*4A
1504281612.52,49505,25.88,74088.0,11.65,6.75,6.07,0,*46
1504281613.71,49506,25.88,74090.0,11.65,6.07,5.19,0,*4C
1504281614.95,49507,25.88,74086.8,11.67,6.11,5.05,0,*45
1504281616.22,49508,25.88,74090.5,11.67,6.35,4.93,0,*42
1504281617.4,49509,25.88,74088.5,11.65,6.11,4.49,0,*40
1504281618.63,49510,25.88,74086.5,11.67,6.03,4.37,0,*40
1504281619.84,49511,25.88,74086.0,11.65,6.07,4.31,0,*41
1504281621.07,49512,25.88,74086.3,11.67,5.89,4.15,0,*43
1504281622.29,49513,25.88,74088.3,11.67,6.03,4.49,0,*4A
1504281623.52,49514,25.88,74088.8,11.67,5.99,4.59,0,*4C
1504281624.73,49515,25.88,74088.8,11.67,5.99,4.49,0,*4C
1504281625.95,49516,25.88,74086.5,11.67,5.95,4.53,0,*48
1504281627.19,49517,25.88,74086.8,11.67,5.99,4.71,0,*45
1504281628.43,49518,25.88,74090.5,11.67,5.89,4.53,0,*4B
1504281629.67,49519,25.88,74088.3,11.67,5.95,4.71,0,*47
1504281630.89,49520,25.88,74090.3,11.69,5.89,4.57,0,*4A
1504281632.08,49521,25.88,74092.0,11.69,5.45,4.37,0,*4D
1504281633.25,49522,25.88,74092.8,11.69,5.45,4.49,0,*47
1504281634.45,49523,25.88,74088.8,11.71,5.45,4.49,0,*4F
1504281635.67,49524,25.88,74092.0,11.71,5.23,4.37,0,*41
1504281636.89,49525,25.88,74090.0,11.71,5.19,4.37,0,*49
1504281638.13,49526,25.88,74094.3,11.71,5.11,4.31,0,*44
1504281639.37,49527,25.88,74092.8,11.71,5.01,4.19,0,*4E
1504281640.57,49528,25.88,74088.0,11.71,5.07,4.19,0,*47
1504281641.81,49529,25.88,74090.8,11.71,5.01,4.07,0,*4F
1504281643.02,49530,25.88,74090.8,11.73,5.05,4.11,0,*46
1504281644.23,49531,25.88,74090.8,11.73,5.01,4.07,0,*44
1504281645.45,49532,25.88,74092.5,11.73,4.71,3.81,0,*48
1504281646.64,49533,25.88,74090.5,11.73,4.57,3.89,0,*45
1504281647.84,49534,25.88,74088.3,11.73,4.67,4.11,0,*47
1504281649.06,49535,25.88,74090.8,11.73,5.05,4.53,0,*45
1504281650.24,49536,25.88,74090.8,11.73,5.23,4.81,0,*4D
1504281651.47,49537,25.88,74088.8,11.75,5.15,4.63,0,*43
1504281652.69,49538,25.88,74088.0,11.73,5.01,4.45,0,*4B
1504281653.9,49539,25.88,74088.3,11.73,4.93,4.41,0,*44
1504281655.14,49540,25.88,74090.5,11.75,4.59,3.93,0,*42
1504281656.37,49541,25.88,74084.5,11.75,4.57,3.79,0,*49
1504281657.6,49542,25.88,74086.8,11.73,4.67,3.97,0,*4F
1504281658.84,49543,25.88,74084.0,11.75,4.93,4.23,0,*4B
1504281660.04,49544,25.88,74088.8,11.75,4.85,4.27,0,*4F
1504281661.28,49545,25.88,74084.0,11.75,4.93,4.33,0,*4C
1504281662.49,49546,25.88,74090.3,11.75,4.85,4.37,0,*4C
1504281663.73,49547,25.88,74086.3,11.79,5.01,4.49,0,*45
1504281664.97,49548,25.88,74086.5,11.79,5.01,4.53,0,*41
1504281666.2,49549,25.88,74086.0,11.79,4.79,4.49,0,*45
1504281667.44,49550,25.88,74086.0,11.79,4.63,4.49,0,*46
1504281668.65,49551,25.88,74084.8,11.79,4.85,4.85,0,*4F
1504281669.9,49552,25.88,74086.5,11.79,5.01,5.11,0,*4D
1504281671.13,49553,25.88,74086.0,11.79,4.79,4.85,0,*4E
1504281672.35,49554,25.88,74084.8,11.79,4.37,4.49,0,*43
1504281673.59,49555,25.88,74086.5,11.79,4.53,4.59,0,*41
1504281674.82,49556,25.88,74084.3,11.79,4.41,4.59,0,*41
1504281676.06,49557,25.88,74080.8,11.79,4.49,4.67,0,*45
1504281677.3,49558,25.88,74082.8,11.79,4.41,4.63,0,*46
1504281678.5,49559,25.88,74082.0,11.81,4.49,4.67,0,*4C
1504281679.7,49560,25.88,74086.0,11.81,4.49,4.67,0,*46
1504281680.91,49561,25.88,74082.5,11.85,4.41,4.63,0,*4F
1504281682.15,49562,25.88,74084.8,11.81,4.67,4.97,0,*47
1504281683.34,49563,25.88,74086.3,11.85,4.89,5.11,0,*4D
1504281684.53,49564,25.88,74086.8,11.85,4.89,5.11,0,*4A
1504281685.74,49565,25.88,74086.0,11.85,5.01,5.15,0,*4E
1504281686.93,49566,25.88,74090.5,11.85,5.23,5.33,0,*49
1504281688.15,49567,25.88,74084.5,11.87,5.45,5.55,0,*4A
1504281689.36,49568,25.88,74086.8,11.85,5.51,5.59,0,*4E
1504281690.57,49569,25.88,74084.8,11.85,5.73,5.71,0,*45
1504281691.77,49570,25.88,74086.8,11.85,5.51,5.41,0,*4E
1504281693.03,49571,25.88,74084.3,11.87,5.89,5.77,0,*4D
1504281694.23,49572,25.88,74090.0,11.85,6.07,5.85,0,*44
1504281695.45,49573,25.88,74090.0,11.87,6.25,6.07,0,*4E
1504281696.63,49574,25.88,74090.3,11.89,6.33,6.07,0,*40
1504281697.9,49575,25.88,74084.5,11.87,6.65,6.47,0,*48
1504281699.15,49576,25.88,74086.0,11.87,6.87,6.69,0,*4B
1504281700.38,49577,25.88,74084.5,11.89,7.27,7.15,0,*45
1504281701.58,49578,25.88,74088.3,11.89,7.33,7.23,0,*4A
1504281702.81,49579,25.88,74086.8,11.91,7.47,7.41,0,*45
1504281703.99,49580,25.88,74090.0,11.89,7.59,7.55,0,*40
1504281705.19,49581,25.88,74086.8,11.91,7.59,7.51,0,*4C
1504281706.45,49582,25.88,74088.3,11.91,7.61,7.61,0,*47
1504281707.71,49583,25.88,74088.0,11.91,7.61,7.61,0,*46
1504281708.94,49584,25.88,74088.3,11.93,7.87,7.77,0,*4C
1504281710.18,49585,25.88,74088.8,11.95,7.79,7.87,0,*45
1504281711.38,49586,25.88,74090.5,11.95,8.09,7.97,0,*4F
1504281712.64,49587,25.88,74086.5,11.95,7.91,7.87,0,*41
1504281713.9,49588,25.88,74086.0,11.95,7.87,7.91,0,*4E
1504281715.1,49589,25.88,74088.3,11.97,8.01,8.01,0,*4A
1504281716.34,49590,25.88,74088.3,11.99,7.87,7.95,0,*4F
1504281717.6,49591,25.88,74086.5,11.97,7.77,7.83,0,*48
1504281718.83,49592,25.88,74088.5,11.97,7.79,7.83,0,*45
1504281720.06,49593,25.88,74084.3,11.99,7.83,7.95,0,*48
1504281721.3,49594,25.88,74084.3,12.01,7.51,7.61,0,*49
1504281722.57,49595,25.88,74086.0,12.01,7.61,7.73,0,*48
1504281723.78,49596,25.88,74090.5,12.01,7.51,7.59,0,*40
1504281725.05,49597,25.88,74084.3,12.01,7.61,7.73,0,*4A
1504281726.25,49598,25.88,74086.0,12.05,8.01,8.09,0,*4A
1504281727.47,49599,25.88,74084.3,12.01,8.15,8.19,0,*4B
1504281728.68,49600,25.88,74084.8,12.05,8.19,8.19,0,*40
1504281729.91,49601,25.88,74084.8,12.05,8.29,8.19,0,*42
1504281731.17,49602,25.88,74086.0,12.05,8.41,8.33,0,*47
1504281732.36,49603,25.88,74088.8,12.07,8.27,8.27,0,*41
1504281733.55,49604,25.88,74086.8,12.07,8.27,8.27,0,*46
1504281734.74,49605,25.88,74086.3,12.11,8.27,8.15,0,*41
1504281735.95,49606,25.88,74088.3,12.07,8.23,7.95,0,*46
1504281737.18,49607,25.88,74086.5,12.09,8.15,7.91,0,*48
1504281738.41,49608,25.88,74086.8,12.09,8.01,7.65,0,*49
1504281739.67,49609,25.88,74086.3,12.09,8.13,7.69,0,*47
1504281740.88,49610,25.88,74090.8,12.11,8.27,7.83,0,*45
1504281742.09,49611,25.88,74088.3,12.11,8.29,8.05,0,*4B
1504281743.32,49612,25.88,74090.5,12.13,8.37,8.09,0,*49
1504281744.55,49613,25.88,74088.3,12.13,8.29,8.09,0,*47
1504281745.81,49614,25.88,74090.0,12.13,7.95,7.61,0,*49
1504281747.07,49615,25.88,74088.0,12.13,7.91,7.69,0,*44
1504281748.26,49616,25.88,74088.5,12.11,8.15,7.97,0,*47
1504281749.46,49617,25.88,74090.3,12.13,8.09,7.97,0,*49
1504281750.67,49618,25.88,74090.5,12.15,7.97,7.87,0,*49
1504281751.89,49619,25.88,74090.3,12.17,8.01,7.91,0,*4D
1504281753.13,49620,25.88,74090.8,12.15,7.95,7.87,0,*40
1504281754.33,49621,25.88,74088.3,12.17,8.01,7.97,0,*40
1504281755.54,49622,25.88,74088.0,12.19,8.01,7.91,0,*4B
1504281756.77,49623,25.88,74090.3,12.17,7.69,7.59,0,*41
1504281757.95,49624,25.88,74088.3,12.19,7.79,7.59,0,*49
1504281759.16,49625,25.88,74090.8,12.19,7.59,7.47,0,*45
1504281760.36,49626,25.88,74092.5,12.21,7.05,7.05,0,*42
1504281761.54,49627,25.88,74090.3,12.23,7.05,7.05,0,*41
1504281762.72,49628,25.88,74092.0,12.23,7.05,7.09,0,*42
1504281763.89,49629,25.88,74090.3,12.23,7.09,7.05,0,*43
1504281765.1,49630,25.88,74086.5,12.27,7.11,6.97,0,*4C
1504281766.33,49631,25.88,74090.3,12.29,7.09,6.53,0,*42
1504281767.57,49632,25.88,74088.5,12.29,6.65,6.11,0,*4C
1504281768.8,49633,25.88,74088.0,12.31,6.53,5.89,0,*43
1504281770.03,49634,25.88,74088.8,12.31,6.43,5.73,0,*40
1504281771.26,49635,25.88,74092.0,12.33,6.21,5.23,0,*42
1504281772.5,49636,25.88,74088.3,12.33,5.93,4.85,0,*46
1504281773.68,49637,25.88,74088.0,12.35,5.23,3.93,0,*4A
1504281774.89,49638,25.88,74088.3,12.35,5.07,3.37,0,*4D
1504281776.1,49639,25.88,74090.3,12.39,4.89,2.81,0,*4B
1504281777.31,49640,25.88,74092.8,12.39,4.81,2.59,0,*48
1504281778.52,49641,25.88,74092.8,12.39,4.53,2.25,0,*4D
1504281779.73,49642,25.88,74092.3,12.39,4.53,2.43,0,*4E
1504281780.97,49643,25.88,74092.8,12.41,4.57,2.39,0,*49
1504281782.17,49644,25.88,74090.8,12.41,4.57,2.35,0,*42
1504281783.38,49645,25.88,74090.8,12.43,4.41,2.13,0,*42
1504281784.61,49646,25.88,74090.8,12.45,4.15,1.89,0,*46
1504281785.86,49647,25.88,74090.5,12.49,3.97,1.47,0,*44
1504281787.12,49648,25.88,74090.3,12.49,3.71,1.13,0,*42
1504281788.38,49649,25.88,74090.0,12.49,3.41,0.71,0,*75
1504281789.64,49650,25.88,74090.8,12.49,3.41,0.47,0,*78
1504281790.87,49651,25.88,74092.3,12.49,3.63,0.71,0,*7C
1504281792.07,49652,25.88,74094.5,12.51,3.85,0.79,0,*76
1504281793.29,49653,25.88,74088.5,12.53,3.63,0.63,0,*76
1504281794.49,49654,25.88,74090.5,12.55,3.81,0.83,0,*75
1504281795.74,49655,25.88,74090.5,12.53,4.01,1.17,0,*41
1504281796.97,49656,25.88,74094.0,12.53,4.33,1.67,0,*44
1504281798.2,49657,25.88,74088.0,12.53,4.85,2.39,0,*40
1504281799.4,49658,25.88,74094.0,12.55,5.29,2.89,0,*45
1504281800.6,49659,25.88,74088.8,12.55,5.33,3.07,0,*48
1504281801.81,49660,25.88,74088.3,12.57,5.59,3.59,0,*47
1504281803.02,49661,25.88,74090.0,12.55,5.93,4.07,0,*4E
1504281804.28,49662,25.88,74092.3,12.57,6.17,4.59,0,*4B
1504281805.53,49663,25.88,74088.8,12.57,6.29,4.97,0,*45
1504281806.73,49664,25.88,74088.0,12.55,6.57,5.45,0,*47
1504281807.94,49665,25.88,74090.0,12.59,6.65,5.71,0,*4C
1504281809.2,49666,25.88,74088.5,12.57,6.69,5.93,0,*41
1504281810.41,49667,25.88,74092.0,12.59,6.73,5.95,0,*43
1504281811.65,49668,25.88,74088.5,12.59,6.51,5.93,0,*4A
1504281812.86,49669,25.88,74090.0,12.59,6.43,6.03,0,*42
1504281814.07,49670,25.88,74090.3,12.59,6.53,6.03,0,*4B
1504281815.28,49671,25.88,74090.3,12.59,6.73,6.21,0,*48
1504281816.52,49672,25.88,74090.3,12.57,6.73,6.25,0,*41
1504281817.76,49673,25.88,74092.5,12.57,6.73,6.25,0,*40
1504281818.98,49674,25.88,74090.5,12.59,6.53,6.13,0,*4E
1504281820.22,49675,25.88,74090.5,12.61,6.57,6.17,0,*44
1504281821.44,49676,25.88,74090.3,12.61,6.35,5.99,0,*46
1504281822.64,49677,25.88,74090.8,12.59,6.03,5.59,0,*45
1504281823.87,49678,25.88,74090.8,12.59,5.89,5.51,0,*43
1504281825.08,49679,25.88,74094.5,12.59,5.85,5.49,0,*47
1504281826.28,49680,25.88,74090.3,12.59,5.81,5.59,0,*44
1504281827.5,49681,25.88,74088.0,12.61,5.89,5.49,0,*47
1504281828.73,49682,25.88,74092.8,12.57,5.77,5.33,0,*4D
1504281829.95,49683,25.88,74092.8,12.57,6.11,5.67,0,*4E
1504281831.16,49684,25.88,74092.0,12.55,6.29,5.89,0,*40
1504281832.36,49685,25.88,74092.0,12.59,6.39,6.07,0,*49
1504281833.57,49686,25.88,74092.3,12.59,6.61,6.33,0,*40
1504281834.77,49687,25.88,74094.0,12.61,6.79,6.69,0,*4C
1504281835.98,49688,25.88,74092.3,12.63,6.79,6.75,0,*4C
1504281837.18,49689,25.88,74092.0,12.59,6.75,6.69,0,*45
1504281838.41,49690,25.88,74090.8,12.59,6.73,6.65,0,*47
1504281839.64,49691,25.88,74090.8,12.59,6.73,6.65,0,*46
1504281840.84,49692,25.88,74092.0,12.61,6.75,6.61,0,*4C
1504281842.07,49693,25.88,74094.8,12.59,6.87,6.53,0,*4A
1504281843.28,49694,25.88,74092.3,12.61,6.97,6.65,0,*42
1504281844.49,49695,25.88,74094.0,12.59,6.97,6.65,0,*48
1504281845.72,49696,25.88,74092.5,12.59,6.73,6.39,0,*48
1504281846.93,49697,25.88,74092.8,12.59,6.43,6.29,0,*4B
1504281848.11,49698,25.88,74092.8,12.59,6.33,6.29,0,*43
1504281849.31,49699,25.88,74092.0,12.59,6.29,6.33,0,*42
1504281850.56,49700,25.88,74092.5,12.57,6.39,6.57,0,*4E
1504281851.79,49701,25.88,74092.3,12.57,5.93,6.29,0,*45
1504281853.0,49702,25.88,74094.5,12.57,5.71,6.29,0,*4A
1504281854.18,49703,25.88,74092.8,12.59,5.63,6.21,0,*4E
1504281855.36,49704,25.94,74096.3,12.59,4.41,5.15,0,*4C
1504281856.57,49705,25.88,74094.8,12.55,3.37,3.81,0,*4C
1504281857.79,49706,25.88,74088.3,12.55,2.85,3.11,0,*4E
1504281859.05,49707,25.88,74094.5,12.53,2.01,2.09,0,*4D
1504281860.26,49708,25.88,74094.8,12.51,1.63,1.79,0,*43
1504281861.49,49709,25.88,74092.8,12.53,1.01,1.25,0,*4D
1504281862.71,49710,25.88,74092.0,12.51,0.29,-0.23,0,*66
1504281863.91,49711,25.88,74092.5,12.51,0.17,-0.53,0,*6D
1504281865.11,49712,25.88,74094.0,12.51,0.05,-0.85,0,*56
1504281866.32,49713,25.88,74092.0,12.51,-0.53,-1.91,0,*7D
1504281867.51,49714,25.88,74094.5,12.51,-0.29,-1.71,0,*79
1504281868.76,49715,25.88,74092.3,12.45,-0.53,-2.11,0,*75
1504281869.97,49716,25.88,74092.3,12.49,-0.45,-2.19,0,*75
1504281871.24,49717,25.88,74092.0,12.49,-0.23,-2.11,0,*7C
1504281872.46,49718,25.88,74092.3,12.45,-0.19,-2.43,0,*71
1504281873.71,49719,25.88,74094.5,12.49,0.25,-2.59,0,*55
1504281874.97,49720,25.88,74096.0,12.45,0.33,-2.75,0,*5A
1504281876.2,49721,25.88,74092.5,12.45,0.59,-2.87,0,*5A
1504281877.44,49722,25.88,74090.0,12.45,0.87,-3.11,0,*54
1504281878.68,49723,25.88,74094.5,12.45,1.33,-2.91,0,*62
1504281879.9,49724,25.88,74092.0,12.45,1.79,-2.79,0,*6D
1504281881.14,49725,25.88,74094.0,12.45,2.17,-2.43,0,*6E
1504281882.39,49726,25.94,74098.3,12.45,2.51,-2.15,0,*6C
1504281883.61,49727,25.94,74098.0,12.45,2.61,-2.23,0,*6B
1504281884.85,49728,25.94,74096.3,12.43,2.55,-2.51,0,*60
1504281886.08,49729,25.88,74094.3,12.43,2.73,-2.67,0,*60
1504281887.3,49730,25.88,74092.0,12.43,3.15,-2.35,0,*6E
1504281888.55,49731,25.88,74088.0,12.43,3.15,-2.55,0,*69
1504281889.79,49732,25.94,74094.3,12.43,3.67,-2.03,0,*6C
1504281891.03,49733,25.88,74092.5,12.43,3.67,-2.03,0,*6D
1504281892.22,49734,25.88,74088.3,12.43,3.93,-1.75,0,*63
1504281893.44,49735,25.88,74094.0,12.41,4.11,-1.55,0,*6F
1504281894.71,49736,25.88,74094.8,12.45,3.97,-1.87,0,*6E
1504281895.89,49737,25.88,74090.8,12.43,4.19,-1.75,0,*65
1504281897.11,49738,25.94,74098.0,12.41,4.45,-1.67,0,*62
1504281898.32,49739,25.88,74094.0,12.41,4.81,-1.29,0,*61
1504281899.56,49740,25.88,74094.5,12.41,5.19,-0.97,0,*5B
1504281900.79,49741,25.88,74090.8,12.41,5.19,-0.97,0,*5A
1504281902.0,49742,25.88,74092.0,12.41,5.41,-0.69,0,*55
1504281903.19,49743,25.88,74092.3,12.43,5.59,-0.37,0,*54
1504281904.4,49744,25.88,74094.5,12.41,5.19,-0.57,0,*53
1504281905.63,49745,25.88,74094.3,12.41,5.27,-0.29,0,*56
1504281906.85,49746,25.88,74092.8,12.41,5.29,-0.23,0,*51
1504281908.07,49747,25.88,74096.3,12.41,5.19,-0.11,0,*52
1504281909.27,49748,25.88,74092.0,12.39,5.15,0.17,0,*75
1504281910.53,49749,25.88,74092.5,12.41,4.97,0.29,0,*7D
1504281911.73,49750,25.88,74096.3,12.39,5.11,0.59,0,*72
1504281912.99,49751,25.88,74094.5,12.37,5.05,0.87,0,*7B
1504281914.24,49752,25.88,74092.0,12.37,4.67,0.79,0,*7C
1504281915.47,49753,25.88,74096.8,12.37,4.89,1.13,0,*40
1504281916.7,49754,25.88,74092.3,12.37,4.71,1.01,0,*43
1504281917.91,49755,25.88,74096.5,12.35,4.41,0.87,0,*7C
1504281919.11,49756,25.88,74094.3,12.35,4.27,0.83,0,*7B
1504281920.32,49757,25.88,74094.8,12.35,3.93,0.47,0,*7A
1504281921.58,49758,25.88,74094.3,12.37,3.75,0.37,0,*78
1504281922.83,49759,25.94,74098.5,12.37,3.37,0.13,0,*79
1504281924.05,49760,25.94,74096.8,12.37,2.91,-0.15,0,*55
1504281925.28,49761,25.88,74096.3,12.37,2.43,-0.69,0,*50
1504281926.55,49762,25.88,74092.3,12.37,2.17,-1.13,0,*6E
1504281927.79,49763,25.94,74096.5,12.35,1.97,-1.39,0,*6E
1504281929.01,49764,25.88,74094.5,12.35,1.93,-1.63,0,*62
1504281930.23,49765,25.88,74098.0,12.35,1.79,-2.11,0,*61
1504281931.44,49766,25.88,74098.3,12.35,1.71,-2.39,0,*60
1504281932.66,49767,25.88,74094.5,12.35,1.93,-2.15,0,*63
1504281933.85,49768,25.94,74098.3,12.35,1.79,-2.27,0,*69
1504281935.06,49769,25.88,74096.0,12.35,1.67,-2.39,0,*68
1504281936.28,49770,25.88,74096.8,12.35,1.71,-2.23,0,*6C
1504281937.53,49771,25.88,74096.3,12.33,1.79,-2.03,0,*61
1504281938.74,49772,25.88,74098.0,12.33,1.41,-2.39,0,*60
1504281939.99,49773,25.88,74098.5,12.33,1.79,-1.83,0,*68
1504281941.23,49774,25.88,74094.8,12.33,1.79,-1.91,0,*6C
1504281942.45,49775,25.88,74098.8,12.33,1.79,-1.67,0,*64
1504281943.67,49776,25.88,74094.0,12.33,1.75,-1.55,0,*6A
1504281944.93,49777,25.88,74094.5,12.29,1.59,-1.47,0,*6D
1504281946.19,49778,25.94,74094.8,12.29,1.63,-0.97,0,*57
1504281947.45,49779,25.88,74090.3,12.29,1.71,-0.27,0,*5E
1504281948.63,49780,25.88,74094.0,12.31,1.75,0.09,0,*44
1504281949.88,49781,25.88,74094.0,12.29,1.63,0.29,0,*79
1504281951.11,49782,25.88,74088.8,12.27,1.59,0.79,0,*78
1504281952.35,49783,25.88,74092.3,12.27,1.33,0.91,0,*73
1504281953.56,49784,25.88,74090.8,12.27,0.97,0.87,0,*4C
1504281954.79,49785,25.94,74094.3,12.27,0.87,1.09,0,*7B
1504281956.01,49786,25.88,74092.3,12.23,0.87,1.43,0,*72
1504281957.24,49787,25.88,74094.0,12.23,0.55,1.37,0,*7F
1504281958.46,49788,25.94,74096.0,12.23,0.25,1.43,0,*74
1504281959.68,49789,25.88,74092.5,12.23,0.25,1.67,0,*73
1504281960.87,49790,25.88,74096.8,12.23,0.13,1.79,0,*71
1504281962.07,49791,25.88,74092.0,12.19,0.09,1.97,0,*42
1504281963.28,49792,25.88,74094.0,12.21,0.09,1.97,0,*4A
1504281964.53,49793,25.94,74096.3,12.21,0.21,2.17,0,*7A
1504281965.76,49794,25.88,74092.8,12.19,0.59,2.47,0,*7C
1504281967.01,49795,25.88,74094.5,12.21,0.83,2.69,0,*7D
1504281968.23,49796,25.94,74098.8,12.19,0.83,2.69,0,*75
1504281969.44,49797,25.88,74092.8,12.19,1.05,2.85,0,*49
1504281970.67,49798,25.88,74092.0,12.19,1.43,3.07,0,*4F
1504281971.89,49799,25.88,74092.5,12.19,1.75,3.41,0,*49
1504281973.12,49800,25.94,74096.3,12.19,2.13,3.71,0,*46
1504281974.33,49801,25.88,74092.0,12.19,2.59,4.15,0,*4C
1504281975.55,49802,25.88,74094.0,12.19,3.11,4.53,0,*40
1504281976.79,49803,25.88,74094.8,12.19,3.41,4.75,0,*40
1504281978.03,49804,25.94,74098.0,12.19,3.67,4.93,0,*4B
1504281979.23,49805,25.88,74092.3,12.19,3.89,5.07,0,*46
1504281980.41,49806,25.88,74096.8,12.19,4.23,5.41,0,*40
1504281981.62,49807,25.88,74092.8,12.19,4.33,5.55,0,*45
1504281982.83,49808,25.88,74096.8,12.17,4.33,5.41,0,*41
1504281984.06,49809,25.88,74092.3,12.19,4.75,5.81,0,*40
1504281985.29,49810,25.88,74092.8,12.17,5.07,6.17,0,*4E
1504281986.49,49811,25.88,74096.0,12.17,5.29,6.33,0,*45
1504281987.72,49812,25.94,74098.0,12.17,5.41,6.51,0,*4C
1504281988.95,49813,25.88,74098.0,12.17,5.15,6.17,0,*4E
1504281990.21,49814,25.88,74094.0,12.17,5.01,5.89,0,*48
1504281991.41,49815,25.94,74096.8,12.17,5.07,6.07,0,*4A
1504281992.66,49816,25.88,74094.5,12.17,5.73,6.57,0,*4F
1504281993.9,49817,25.94,74096.5,12.17,5.77,6.65,0,*4B
1504281995.15,49818,25.94,74096.3,12.13,5.81,6.73,0,*4E
1504281996.36,49819,25.94,74094.3,12.11,5.67,6.51,0,*45
1504281997.57,49820,25.88,74092.0,12.11,5.63,6.35,0,*49
1504281998.81,49821,25.88,74094.8,12.13,5.77,6.69,0,*46
1504282000.05,49822,25.94,74096.3,12.13,5.67,6.43,0,*4C
1504282001.28,49823,25.94,74094.5,12.11,5.93,6.69,0,*4C
1504282002.46,49824,25.88,74092.0,12.11,6.03,6.79,0,*40
1504282003.69,49825,25.94,74094.3,12.11,5.89,6.69,0,*41
1504282004.9,49826,25.94,74098.5,12.11,5.81,6.79,0,*4B
1504282006.11,49827,25.88,74094.8,12.09,5.77,6.75,0,*46
1504282007.31,49828,25.88,74094.5,12.07,5.63,6.57,0,*42
1504282008.52,49829,25.94,74098.3,12.09,5.95,6.97,0,*48
1504282009.72,49830,25.94,74096.5,12.07,5.95,7.11,0,*41
1504282010.95,49831,25.88,74094.8,12.07,5.77,7.11,0,*4C
1504282012.12,49832,25.88,74098.0,12.07,5.63,7.01,0,*4B
1504282013.32,49833,25.88,74094.3,12.09,5.67,7.09,0,*48
1504282014.52,49834,25.94,74098.3,12.09,5.63,7.09,0,*4B
1504282015.75,49835,25.88,74096.5,12.09,5.41,6.91,0,*4A
1504282016.94,49836,25.94,74100.5,12.07,5.27,6.79,0,*41
1504282018.13,49837,25.88,74096.0,12.07,5.27,6.79,0,*40
1504282019.34,49838,25.94,74096.0,12.07,4.81,6.47,0,*4F
1504282020.54,49839,25.94,74096.3,12.07,4.93,6.79,0,*40
1504282021.78,49840,25.94,74098.0,12.07,4.59,6.47,0,*45
1504282022.99,49841,25.94,74098.5,12.07,4.37,6.39,0,*45
1504282024.22,49842,25.94,74098.8,12.05,4.33,6.65,0,*49
1504282025.42,49843,25.88,74096.3,12.05,4.41,6.75,0,*4C
1504282026.65,49844,25.88,74096.0,12.01,4.15,6.57,0,*4E
1504282027.9,49845,25.88,74098.5,12.01,4.01,6.51,0,*4C
1504282029.13,49846,25.94,74096.5,12.05,4.19,6.73,0,*42
1504282030.34,49847,25.88,74096.8,12.01,4.53,6.93,0,*47
1504282031.57,49848,25.88,74092.3,12.01,4.63,6.93,0,*4B
1504282032.77,49849,25.88,74094.8,12.05,4.53,6.83,0,*4C
1504282033.98,49850,25.88,74096.3,12.05,4.53,6.83,0,*44
1504282035.21,49851,25.88,74094.3,12.01,4.27,6.51,0,*4D
1504282036.43,49852,25.94,74096.8,12.01,4.49,6.57,0,*40
1504282037.69,49853,25.88,74094.8,12.01,4.59,6.61,0,*45
1504282038.92,49854,25.88,74094.8,12.01,4.85,6.69,0,*4B
1504282040.12,49855,25.94,74098.0,12.01,5.07,6.83,0,*45
1504282041.37,49856,25.88,74092.8,12.01,5.01,6.61,0,*4C
1504282042.61,49857,25.88,74094.3,12.01,5.07,6.51,0,*48
1504282043.83,49858,25.88,74094.3,12.05,5.15,6.53,0,*42
1504282045.06,49859,25.94,74096.0,12.05,5.23,6.43,0,*47
1504282046.31,49860,25.88,74094.0,12.01,5.55,6.73,0,*4B
1504282047.54,49861,25.88,74094.8,12.05,5.81,6.75,0,*41
1504282048.78,49862,25.88,74094.5,12.01,6.03,6.91,0,*45
1504282049.99,49863,25.88,74094.0,12.01,5.99,6.79,0,*42
1504282051.24,49864,25.88,74094.5,12.01,5.89,6.69,0,*45
1504282052.46,49865,25.88,74094.3,12.01,6.33,6.93,0,*43
1504282053.7,49866,25.94,74096.0,11.99,6.73,7.27,0,*48
1504282054.91,49867,25.94,74098.5,11.99,6.91,7.29,0,*4B
1504282056.1,49868,25.88,74092.5,11.99,6.93,7.37,0,*49
1504282057.31,49869,25.88,74092.5,11.99,6.91,7.29,0,*45
1504282058.52,49870,25.88,74092.8,11.99,7.15,7.37,0,*4F
1504282059.71,49871,25.88,74094.3,11.99,7.29,7.51,0,*41
1504282060.92,49872,25.88,74092.0,11.99,7.15,7.37,0,*4D
1504282062.13,49873,25.88,74092.5,11.99,7.27,7.37,0,*4D
1504282063.33,49874,25.88,74092.0,11.99,7.29,7.29,0,*4B
1504282064.51,49875,25.94,74094.5,11.99,7.29,7.41,0,*44
1504282065.7,49876,25.88,74094.3,11.99,7.41,7.51,0,*48
1504282066.92,49877,25.88,74092.5,11.97,7.45,7.47,0,*44
1504282068.16,49878,25.88,74090.5,11.97,7.59,7.65,0,*46
1504282069.41,49879,25.88,74092.5,11.97,7.47,7.47,0,*48
1504282070.67,49880,25.88,74092.0,11.97,7.69,7.69,0,*4E
1504282071.86,49881,25.88,74092.8,11.99,7.59,7.51,0,*49
1504282073.09,49882,25.94,74094.3,11.97,7.55,7.47,0,*4F
1504282074.34,49883,25.88,74088.3,11.97,7.65,7.65,0,*4D
1504282075.6,49884,25.88,74090.0,11.97,7.91,7.83,0,*49
1504282076.8,49885,25.88,74088.8,11.93,7.55,7.65,0,*4C
1504282078.04,49886,25.88,74090.5,11.95,7.77,7.79,0,*44
1504282079.3,49887,25.94,74092.5,11.97,7.69,7.69,0,*49
1504282080.54,49888,25.94,74090.8,11.95,7.79,7.77,0,*4A
1504282081.75,49889,25.88,74088.0,11.95,7.79,7.79,0,*45
1504282082.98,49890,25.94,74088.0,11.93,7.77,7.65,0,*48
1504282084.17,49891,25.88,74088.5,11.93,7.79,7.79,0,*4A
1504282085.43,49892,25.88,74086.3,11.95,7.73,7.77,0,*4B
1504282086.66,49893,25.88,74090.8,11.93,7.87,7.91,0,*4F
1504282087.88,49894,25.94,74088.5,11.93,7.65,7.65,0,*4F
1504282089.11,49895,25.88,74086.3,11.93,7.65,7.65,0,*4E
1504282090.34,49896,25.88,74086.8,11.93,7.91,7.87,0,*4A
1504282091.54,49897,25.88,74086.8,11.93,7.91,7.97,0,*4A
1504282092.8,49898,25.88,74088.0,11.91,7.77,7.77,0,*41
1504282094.0,49899,25.88,74088.3,11.91,7.37,7.29,0,*4F
1504282095.23,49900,25.88,74086.3,11.89,7.27,7.27,0,*48
1504282096.41,49901,25.88,74086.3,11.89,7.59,7.55,0,*45
1504282097.67,49902,25.88,74086.8,11.91,7.83,7.77,0,*48
1504282098.93,49903,25.94,74088.8,11.91,7.77,7.77,0,*42
1504282100.15,49904,25.88,74090.8,11.89,7.91,7.91,0,*4C
1504282101.39,49905,25.88,74090.8,11.89,7.91,7.95,0,*49
1504282102.62,49906,25.94,74090.0,11.89,7.91,7.91,0,*4E
1504282103.85,49907,25.88,74088.0,11.87,7.79,7.83,0,*44
1504282105.1,49908,25.88,74084.5,11.91,7.83,7.83,0,*49
1504282106.35,49909,25.88,74086.5,11.87,7.91,7.83,0,*4C
1504282107.54,49910,25.88,74084.0,11.85,7.79,7.79,0,*45
1504282108.78,49911,25.88,74084.5,11.85,7.69,7.77,0,*4B
1504282109.99,49912,25.88,74084.8,11.85,7.77,7.79,0,*49
1504282111.22,49913,25.88,74090.5,11.85,7.87,7.91,0,*41
1504282112.45,49914,25.88,74090.5,11.85,7.87,7.91,0,*46
1504282113.68,49915,25.88,74084.8,11.85,7.87,7.87,0,*40
1504282114.86,49916,25.88,74086.0,11.85,7.51,7.55,0,*47
1504282116.05,49917,25.88,74086.0,11.85,7.29,7.29,0,*42
1504282117.23,49918,25.88,74086.8,11.81,7.51,7.59,0,*41
1504282118.46,49919,25.88,74084.5,11.81,7.47,7.47,0,*48
1504282119.67,49920,25.88,74088.3,11.79,7.41,7.41,0,*45
1504282120.9,49921,25.94,74088.3,11.79,7.37,7.47,0,*43
1504282122.14,49922,25.88,74084.8,11.79,7.09,7.19,0,*46